Showing default

PEARL WHITE 2, 44498

Orbit data source: Space-Track

PEARL WHITE 2, 44498 is a payload satellite owned by USAF AFSPC (US) in LEO that was launched on Mon, 19 Aug 2019 UTC via an ELECTRON launch vehicle from the Rocket Lab Launch Complex (RLLC). Payloads include a variety of satellites, spacecraft, and rockets equipped with specific instruments for various scientific and technological missions. These include communications satellites like Starlink; space stations such as the ISS; scientific satellites like the Hubble; Earth observation satellites from companies like Planet Labs, Umbra, and HawkEye 360; GPS; miniature CubeSats for education and research; and military/defense satellites.

Loading next visibility...
PEARL WHITE 2 details
Identifier
44498, 2019-054D
Orbit
LEO
Last TLE update12 hours ago
Origin
Flag of USUSAF AFSPC (US)
ManufacturerTiger Innov.
MissionOperational Defense Technology
Bus & MotorCUBESAT 6U, Unknown motor
Mass10 kg wet, ~10 kg dry
Launch date (UTC)
2019-08-19 (5 years ago)
Launch vehicle
ELECTRON
Launch site
Rocket Lab Launch Complex (RLLC)
Object type
Payload
Rocket body
Debris
Shape & HBRBox, 0.3 m
Radar Cross Section0.105 m², Medium (>0.1 m² and < 1m²)

Expand to show TLE details & history

TLE from 12 hours ago
0 PEARL WHITE 2
1 44498U 19054D   24348.72793166  .00132487  00000-0  15247-2 0  9996
2 44498  45.0048 114.8107 0011460 302.4006  57.5780 15.60802008294895
Epoch: 2024-12-13T17:28Z
Definitive object data (Epoch: 2024-12-13T17:28:13.295Z)
Latitude-0.00006°
Longitude129.86549°
Altitude381.189 km
Speed7.685 km/s
True Right ascension07h 39m 14s
True Declination0° 00' 00"
Sunlit
Object was in full shadow at TLE epoch
Visualization TLE readout
Latitude-44.98706°
Longitude30.636°
Altitude393.33 km
Speed7.678 km/s
Apparent Right ascension20h 22m 13s
Apparent Declination-68° 04' 55"
Sunlit
Object is in daylight
Visualization observer readout
Local Sidereal Time03:54:20
Azimuth209.075° SW
Elevation-45.015°
Doppler factor1
Orbital elements
Apogee altitude394.724 km
Perigee altitude379.218 km
Semi-major axis6,765.108 km
Eccentricity0.001146
Inclination45.0048°
RAAN114.8107°
Arg. of periapsis302.4006°
True anomaly57.68894°
Mean anomaly57.578°
Eccentric anomaly57.63346°
Mean motion3.9006 °/min
BSTAR0.0015247
Orbital period92.29 mins
Loading maneuver chart data...
Loading historical data...
Loading historical data...
Loading historical data...
Loading historical data...
Loading historical data...
Loading historical data...
Loading historical data...

PEARL WHITE 2 Visibility forecast

Observer location: undefined°, undefined

Span
Click to sort rows by Start time (UTC) header in descending order
Start Az.
Max El. time (UTC)
Max El. Az.
Max El.
End time (UTC)
End Az.
5 mins2024-12-14 12:07:18.132Z229.343° WSW2024-12-14 12:09:18.132Z185.296° SSW39.179°2024-12-14 12:12:18.132Z73.219° E
4 mins2024-12-14 13:45:18.132Z305.772° NW2024-12-14 13:46:18.132Z347.121° N31.2°2024-12-14 13:49:18.132Z59.267° ENE
5 mins2024-12-14 16:58:18.132Z291.674° WNW2024-12-14 17:00:18.132Z148.165° SSE44.473°2024-12-14 17:03:18.132Z117.062° SE
|